| time (UTC) | temp C | wind direction | speed KPH | gust KPH | rain 1hr cm | rain 24hr cm | rain mn cm | humidity % | barometer mb |
| 20260509135554 | 12 | 135 | 0.0 | 1.6 | 0.00 | 0.00 | 0.00 | 57 | 1019.2 |
| 20260509134515 | 11 | 134 | 1.6 | 4.8 | 0.00 | 0.00 | 0.00 | 57 | 1019.1 |
| 20260509133515 | 11 | 135 | 1.6 | 3.2 | 0.00 | 0.00 | 0.00 | 59 | 1019.0 |
| 20260509132516 | 11 | 126 | 1.6 | 3.2 | 0.00 | 0.00 | 0.00 | 59 | 1018.9 |
| 20260509131516 | 11 | 127 | 1.6 | 4.8 | 0.00 | 0.00 | 0.00 | 60 | 1018.7 |
| 20260509130536 | 11 | 134 | 1.6 | 3.2 | 0.00 | 0.00 | 0.00 | 59 | 1018.6 |
| 20260509125517 | 11 | 136 | 3.2 | 6.4 | 0.00 | 0.00 | 0.00 | 59 | 1018.5 |
| 20260509124535 | 11 | 132 | 3.2 | 6.4 | 0.00 | 0.00 | 0.00 | 59 | 1018.4 |
| 20260509123515 | 10 | 130 | 1.6 | 3.2 | 0.00 | 0.00 | 0.00 | 59 | 1018.3 |
| 20260509122516 | 10 | 136 | 3.2 | 8.0 | 0.00 | 0.00 | 0.00 | 60 | 1018.2 |
| 20260509121516 | 10 | 133 | 3.2 | 6.4 | 0.00 | 0.00 | 0.00 | 60 | 1018.1 |
| 20260509120516 | 10 | 138 | 4.8 | 8.0 | 0.00 | 0.00 | 0.00 | 61 | 1018.1 |
| 20260509115516 | 10 | 138 | 3.2 | 8.0 | 0.00 | 0.00 | 0.00 | 61 | 1018.0 |
| 20260509114517 | 10 | 136 | 3.2 | 4.8 | 0.00 | 0.00 | 0.00 | 61 | 1017.8 |
| 20260509113515 | 10 | 130 | 3.2 | 8.0 | 0.00 | 0.00 | 0.00 | 61 | 1017.7 |
| 20260509112535 | 10 | 134 | 3.2 | 9.7 | 0.00 | 0.00 | 0.00 | 60 | 1017.6 |
| 20260509111516 | 10 | 133 | 3.2 | 11.3 | 0.00 | 0.00 | 0.00 | 60 | 1017.7 |
| 20260509110536 | 11 | 135 | 4.8 | 8.0 | 0.00 | 0.00 | 0.00 | 59 | 1017.7 |
| 20260509105516 | 10 | 136 | 3.2 | 9.7 | 0.00 | 0.00 | 0.00 | 60 | 1017.6 |
| 20260509104517 | 11 | 129 | 1.6 | 6.4 | 0.00 | 0.00 | 0.00 | 60 | 1017.7 |
| 20260509103537 | 11 | 137 | 3.2 | 8.0 | 0.00 | 0.00 | 0.00 | 60 | 1017.6 |
| 20260509102515 | 11 | 139 | 3.2 | 8.0 | 0.00 | 0.00 | 0.00 | 59 | 1017.6 |
| 20260509101515 | 11 | 135 | 3.2 | 8.0 | 0.00 | 0.00 | 0.00 | 59 | 1017.7 |
| 20260509100516 | 11 | 134 | 3.2 | 6.4 | 0.00 | 0.00 | 0.00 | 59 | 1017.6 |
| 20260509095516 | 11 | 138 | 3.2 | 9.7 | 0.00 | 0.00 | 0.00 | 59 | 1017.6 |
| 20260509094537 | 11 | 128 | 3.2 | 6.4 | 0.00 | 0.00 | 0.00 | 58 | 1017.6 |
| 20260509093517 | 11 | 140 | 4.8 | 9.7 | 0.00 | 0.00 | 0.00 | 58 | 1017.6 |
| 20260509092537 | 11 | 135 | 6.4 | 14.5 | 0.00 | 0.00 | 0.00 | 59 | 1017.5 |
| 20260509091515 | 11 | 134 | 4.8 | 12.9 | 0.00 | 0.00 | 0.00 | 60 | 1017.5 |
| 20260509090556 | 11 | 149 | 3.2 | 54.7 | 0.00 | 0.00 | 0.00 | 61 | 1017.6 |
| 20260509085515 | 11 | 144 | 0.0 | 1.6 | 0.00 | 0.00 | 0.00 | 61 | 1017.5 |
| 20260509084516 | 11 | 129 | 0.0 | 4.8 | 0.00 | 0.00 | 0.00 | 59 | 1017.6 |
| 20260509083516 | 11 | 135 | 1.6 | 12.9 | 0.00 | 0.00 | 0.00 | 59 | 1017.6 |
| 20260509082517 | 11 | 140 | 3.2 | 11.3 | 0.00 | 0.00 | 0.00 | 59 | 1017.6 |
| 20260509081515 | 11 | 135 | 4.8 | 14.5 | 0.00 | 0.00 | 0.00 | 60 | 1017.6 |
| 20260509080515 | 11 | 138 | 4.8 | 12.9 | 0.00 | 0.00 | 0.00 | 60 | 1017.6 |
| 20260509075515 | 11 | 139 | 6.4 | 17.7 | 0.00 | 0.00 | 0.00 | 60 | 1017.7 |
| 20260509074516 | 11 | 137 | 6.4 | 12.9 | 0.00 | 0.00 | 0.00 | 59 | 1017.7 |
| 20260509073536 | 11 | 136 | 6.4 | 16.1 | 0.00 | 0.00 | 0.00 | 58 | 1017.8 |
| 20260509072517 | 11 | 136 | 8.0 | 17.7 | 0.00 | 0.00 | 0.00 | 57 | 1017.8 |
| 20260509071517 | 12 | 136 | 8.0 | 19.3 | 0.00 | 0.00 | 0.00 | 57 | 1018.0 |
| 20260509070514 | 12 | 137 | 8.0 | 19.3 | 0.00 | 0.00 | 0.00 | 57 | 1018.1 |
| 20260509065515 | 12 | 133 | 6.4 | 19.3 | 0.00 | 0.00 | 0.00 | 56 | 1018.3 |
| 20260509064515 | 12 | 132 | 6.4 | 14.5 | 0.00 | 0.00 | 0.00 | 56 | 1018.3 |
| 20260509063516 | 12 | 131 | 6.4 | 16.1 | 0.00 | 0.00 | 0.00 | 56 | 1018.3 |
| 20260509062516 | 12 | 138 | 8.0 | 17.7 | 0.00 | 0.00 | 0.00 | 56 | 1018.5 |
| 20260509061516 | 12 | 137 | 8.0 | 16.1 | 0.00 | 0.00 | 0.00 | 58 | 1018.5 |
| 20260509060517 | 12 | 138 | 6.4 | 16.1 | 0.00 | 0.00 | 0.00 | 59 | 1018.6 |
| 20260509055515 | 11 | 134 | 9.7 | 19.3 | 0.00 | 0.00 | 0.00 | 61 | 1018.7 |
| 20260509054516 | 11 | 139 | 3.2 | 11.3 | 0.00 | 0.00 | 0.00 | 63 | 1018.9 |
| 20260509053516 | 11 | 134 | 4.8 | 11.3 | 0.00 | 0.00 | 0.00 | 63 | 1019.1 |
| 20260509052516 | 11 | 138 | 4.8 | 14.5 | 0.00 | 0.00 | 0.00 | 62 | 1019.3 |
| 20260509051516 | 11 | 141 | 4.8 | 8.0 | 0.00 | 0.00 | 0.00 | 62 | 1019.4 |
| 20260509050517 | 11 | 137 | 3.2 | 11.3 | 0.00 | 0.00 | 0.00 | 62 | 1019.4 |
| 20260509045517 | 12 | 136 | 1.6 | 4.8 | 0.00 | 0.00 | 0.00 | 60 | 1019.5 |
| 20260509044515 | 11 | 136 | 3.2 | 4.8 | 0.00 | 0.00 | 0.00 | 60 | 1019.6 |
| 20260509043515 | 11 | 138 | 1.6 | 3.2 | 0.00 | 0.00 | 0.00 | 61 | 1019.9 |
| 20260509042515 | 12 | 138 | 0.0 | 3.2 | 0.00 | 0.00 | 0.00 | 61 | 1020.0 |
| 20260509041536 | 12 | 138 | 1.6 | 3.2 | 0.00 | 0.00 | 0.00 | 61 | 1019.9 |
| 20260509040516 | 12 | 139 | 0.0 | 3.2 | 0.00 | 0.00 | 0.00 | 59 | 1020.3 |
| 20260509035516 | 12 | 131 | 0.0 | 1.6 | 0.00 | 0.00 | 0.00 | 57 | 1020.0 |
| 20260509034517 | 13 | 131 | 0.0 | 3.2 | 0.00 | 0.00 | 0.00 | 57 | 1019.7 |
| 20260509033515 | 13 | 124 | 0.0 | 1.6 | 0.00 | 0.00 | 0.00 | 57 | 1019.6 |
| 20260509032515 | 13 | 125 | 0.0 | 1.6 | 0.00 | 0.00 | 0.00 | 56 | 1019.7 |
| 20260509031536 | 13 | 136 | 3.2 | 6.4 | 0.00 | 0.00 | 0.00 | 56 | 1019.5 |
| 20260509030516 | 13 | 131 | 1.6 | 4.8 | 0.00 | 0.00 | 0.00 | 55 | 1019.6 |
| 20260509025536 | 13 | 106 | 0.0 | 1.6 | 0.00 | 0.00 | 0.00 | 54 | 1019.5 |
| 20260509024517 | 13 | 131 | 0.0 | 1.6 | 0.00 | 0.00 | 0.00 | 54 | 1019.3 |
| 20260509023517 | 14 | 130 | 0.0 | 1.6 | 0.00 | 0.00 | 0.00 | 54 | 1019.1 |
| 20260509022515 | 15 | 117 | 1.6 | 3.2 | 0.00 | 0.00 | 0.00 | 52 | 1018.9 |
| 20260509021515 | 15 | 109 | 1.6 | 3.2 | 0.00 | 0.00 | 0.00 | 51 | 1018.8 |
| 20260509020516 | 15 | 112 | 0.0 | 1.6 | 0.00 | 0.00 | 0.00 | 51 | 1018.9 |
| 20260509015516 | 16 | 75 | 0.0 | 1.6 | 0.00 | 0.00 | 0.00 | 49 | 1018.8 |
| 20260509014516 | 16 | 96 | 0.0 | 1.6 | 0.00 | 0.00 | 0.00 | 48 | 1018.7 |
| 20260509013517 | 16 | 0.0 | 0.0 | 0.00 | 0.00 | 0.00 | 47 | 1018.9 | |
| 20260509012514 | 16 | 99 | 0.0 | 1.6 | 0.00 | 0.00 | 0.00 | 46 | 1018.6 |
| 20260509011515 | 17 | 94 | 1.6 | 3.2 | 0.00 | 0.00 | 0.00 | 44 | 1018.7 |
| 20260509010515 | 18 | 118 | 0.0 | 3.2 | 0.00 | 0.00 | 0.00 | 43 | 1018.5 |
| 20260509005516 | 18 | 94 | 1.6 | 3.2 | 0.00 | 0.00 | 0.00 | 42 | 1018.5 |
| 20260509004516 | 18 | 146 | 0.0 | 1.6 | 0.00 | 0.00 | 0.00 | 41 | 1018.7 |
| 20260509003517 | 19 | 244 | 0.0 | 1.6 | 0.00 | 0.00 | 0.00 | 40 | 1018.5 |
| 20260509002517 | 20 | 250 | 0.0 | 3.2 | 0.00 | 0.00 | 0.00 | 38 | 1018.4 |
| 20260509001015 | 21 | 233 | 0.0 | 3.2 | 0.00 | 0.00 | 0.00 | 38 | 1018.4 |
| 20260509000015 | 21 | 101 | 1.6 | 4.8 | 0.00 | 0.00 | 0.00 | 37 | 1018.5 |
| 20260508235016 | 21 | 110 | 0.0 | 1.6 | 0.00 | 0.00 | 0.00 | 37 | 1018.5 |
| 20260508234016 | 22 | 278 | 0.0 | 1.6 | 0.00 | 0.00 | 0.00 | 35 | 1018.5 |
| 20260508233036 | 22 | 152 | 0.0 | 3.2 | 0.00 | 0.00 | 0.00 | 35 | 1018.5 |
| 20260508232017 | 21 | 299 | 0.0 | 4.8 | 0.00 | 0.00 | 0.00 | 37 | 1018.6 |
| 20260508231015 | 21 | 311 | 1.6 | 6.4 | 0.00 | 0.00 | 0.00 | 37 | 1018.5 |
| 20260508230015 | 22 | 101 | 1.6 | 3.2 | 0.00 | 0.00 | 0.00 | 36 | 1018.6 |
| 20260508225015 | 22 | 322 | 0.0 | 3.2 | 0.00 | 0.00 | 0.00 | 37 | 1018.7 |
| 20260508224016 | 22 | 345 | 1.6 | 4.8 | 0.00 | 0.00 | 0.00 | 37 | 1018.7 |
| 20260508223016 | 21 | 160 | 0.0 | 3.2 | 0.00 | 0.00 | 0.00 | 36 | 1018.6 |
| 20260508222016 | 21 | 267 | 1.6 | 4.8 | 0.00 | 0.00 | 0.00 | 37 | 1018.7 |
| 20260508221037 | 21 | 110 | 1.6 | 3.2 | 0.00 | 0.00 | 0.00 | 39 | 1018.7 |
| 20260508220015 | 21 | 87 | 1.6 | 9.7 | 0.00 | 0.00 | 0.00 | 39 | 1018.7 |
| 20260508215015 | 21 | 282 | 1.6 | 6.4 | 0.00 | 0.00 | 0.00 | 38 | 1018.9 |
| 20260508214016 | 21 | 111 | 1.6 | 6.4 | 0.00 | 0.00 | 0.00 | 38 | 1018.9 |
| 20260508213016 | 21 | 296 | 1.6 | 6.4 | 0.00 | 0.00 | 0.00 | 39 | 1019.1 |
| 20260508212016 | 21 | 166 | 1.6 | 4.8 | 0.00 | 0.00 | 0.00 | 39 | 1019.1 |
| 20260508211016 | 21 | 168 | 1.6 | 3.2 | 0.00 | 0.00 | 0.00 | 40 | 1019.1 |
| 20260508210017 | 20 | 89 | 1.6 | 6.4 | 0.00 | 0.00 | 0.00 | 41 | 1019.3 |
| 20260508205015 | 21 | 106 | 3.2 | 9.7 | 0.00 | 0.00 | 0.00 | 40 | 1019.5 |
| 20260508204015 | 21 | 244 | 1.6 | 4.8 | 0.00 | 0.00 | 0.00 | 38 | 1019.5 |
| 20260508203035 | 21 | 319 | 1.6 | 3.2 | 0.00 | 0.00 | 0.00 | 40 | 1019.6 |
| 20260508202016 | 20 | 308 | 1.6 | 3.2 | 0.00 | 0.00 | 0.00 | 39 | 1019.7 |
| 20260508201017 | 20 | 57 | 1.6 | 4.8 | 0.00 | 0.00 | 0.00 | 42 | 1019.8 |
| 20260508200016 | 21 | 245 | 0.0 | 3.2 | 0.00 | 0.00 | 0.00 | 41 | 1019.8 |
| 20260508195017 | 21 | 282 | 1.6 | 3.2 | 0.00 | 0.00 | 0.00 | 39 | 1019.9 |
| 20260508194015 | 21 | 310 | 0.0 | 3.2 | 0.00 | 0.00 | 0.00 | 40 | 1020.1 |
| 20260508193016 | 19 | 175 | 0.0 | 3.2 | 0.00 | 0.00 | 0.00 | 43 | 1020.2 |
| 20260508192016 | 19 | 250 | 1.6 | 4.8 | 0.00 | 0.00 | 0.00 | 42 | 1020.2 |
| 20260508191036 | 19 | 332 | 1.6 | 6.4 | 0.00 | 0.00 | 0.00 | 43 | 1020.3 |
| 20260508190017 | 19 | 256 | 1.6 | 4.8 | 0.00 | 0.00 | 0.00 | 42 | 1020.3 |
| 20260508185017 | 19 | 256 | 1.6 | 4.8 | 0.00 | 0.00 | 0.00 | 44 | 1020.4 |
| 20260508184055 | 18 | 279 | 1.6 | 3.2 | 0.00 | 0.00 | 0.00 | 45 | 1020.5 |
| 20260508183015 | 18 | 172 | 0.0 | 1.6 | 0.00 | 0.00 | 0.00 | 44 | 1020.6 |
| 20260508182015 | 18 | 113 | 1.6 | 3.2 | 0.00 | 0.00 | 0.00 | 44 | 1020.6 |
| 20260508181016 | 18 | 323 | 0.0 | 4.8 | 0.00 | 0.00 | 0.00 | 45 | 1020.7 |
| 20260508180016 | 17 | 272 | 1.6 | 4.8 | 0.00 | 0.00 | 0.00 | 45 | 1020.8 |
| 20260508175057 | 17 | 17 | 0.0 | 1.6 | 0.00 | 0.00 | 0.00 | 46 | 1020.8 |
| 20260508174037 | 17 | 256 | 1.6 | 6.4 | 0.00 | 0.00 | 0.00 | 47 | 1020.9 |
| 20260508173015 | 16 | 242 | 0.0 | 3.2 | 0.00 | 0.00 | 0.00 | 46 | 1020.8 |
| 20260508172015 | 16 | 50 | 0.0 | 3.2 | 0.00 | 0.00 | 0.00 | 47 | 1020.9 |
| 20260508171035 | 16 | 292 | 0.0 | 3.2 | 0.00 | 0.03 | 0.00 | 47 | 1021.0 |
| 20260508170016 | 15 | 332 | 0.0 | 3.2 | 0.00 | 0.03 | 0.00 | 49 | 1021.2 |
| 20260508165016 | 15 | 21 | 0.0 | 3.2 | 0.00 | 0.03 | 0.00 | 50 | 1021.2 |
| 20260508164016 | 15 | 319 | 0.0 | 1.6 | 0.00 | 0.05 | 0.00 | 51 | 1021.2 |
| 20260508163017 | 14 | 331 | 0.0 | 3.2 | 0.00 | 0.05 | 0.00 | 52 | 1021.3 |
| 20260508162015 | 13 | 286 | 0.0 | 1.6 | 0.00 | 0.05 | 0.00 | 55 | 1021.4 |
| 20260508161015 | 13 | 139 | 0.0 | 3.2 | 0.00 | 0.05 | 0.00 | 56 | 1021.5 |
| 20260508160016 | 13 | 253 | 0.0 | 1.6 | 0.00 | 0.08 | 0.00 | 60 | 1021.5 |
| 20260508155016 | 12 | 227 | 0.0 | 4.8 | 0.00 | 0.10 | 0.00 | 61 | 1021.5 |
| 20260508154036 | 11 | 154 | 0.0 | 4.8 | 0.00 | 0.10 | 0.00 | 66 | 1021.6 |
| 20260508153016 | 11 | 257 | 0.0 | 3.2 | 0.00 | 0.15 | 0.00 | 67 | 1021.6 |
| 20260508152017 | 11 | 250 | 1.6 | 3.2 | 0.00 | 0.15 | 0.00 | 71 | 1021.7 |
| 20260508151015 | 10 | 247 | 0.0 | 3.2 | 0.00 | 0.15 | 0.00 | 73 | 1021.8 |
| 20260508150035 | 10 | 244 | 0.0 | 3.2 | 0.00 | 0.15 | 0.00 | 75 | 1021.9 |
| 20260508145015 | 9 | 80 | 0.0 | 1.6 | 0.00 | 0.15 | 0.00 | 78 | 1021.9 |
| 20260508144036 | 8 | 99 | 0.0 | 1.6 | 0.00 | 0.15 | 0.00 | 80 | 1022.1 |
| 20260508143017 | 8 | 144 | 1.6 | 4.8 | 0.00 | 0.15 | 0.00 | 81 | 1022.0 |
| 20260508142017 | 8 | 232 | 0.0 | 3.2 | 0.00 | 0.15 | 0.00 | 82 | 1022.2 |
| 20260508141017 | 7 | 222 | 0.0 | 1.6 | 0.00 | 0.15 | 0.00 | 82 | 1022.2 |
| 20260508140015 | 7 | 257 | 0.0 | 3.2 | 0.00 | 0.15 | 0.00 | 83 | 1022.3 |